Meteo pe oră la Bolshoe Bahovo

Astăzi, 8 Mai, Sâmbătă

Timp Temperatura Precipitaţii Vânt Presiune Umiditate
00:00 +6°C° 0.1 mm 4 m/s 734 mmHg 95%
01:00 +7°C° 0.1 mm 3 m/s 734 mmHg 96%
02:00 +7°C° 0.1 mm 3 m/s 734 mmHg 96%
03:00 +5°C° 0 mm 3 m/s 734 mmHg 95%
04:00 +5°C° 0 mm 3 m/s 735 mmHg 95%
05:00 +4°C° 0 mm 4 m/s 735 mmHg 94%
06:00 +4°C° 0 mm 4 m/s 735 mmHg 92%
07:00 +3°C° 0 mm 5 m/s 736 mmHg 90%
08:00 +3°C° 0 mm 6 m/s 736 mmHg 88%
09:00 +4°C° 0 mm 6 m/s 736 mmHg 81%
10:00 +6°C° 0 mm 5 m/s 737 mmHg 75%
11:00 +7°C° 0 mm 5 m/s 737 mmHg 68%
12:00 +7°C° 0 mm 5 m/s 737 mmHg 63%
13:00 +8°C° 0 mm 5 m/s 737 mmHg 59%
14:00 +8°C° 0 mm 6 m/s 737 mmHg 54%
15:00 +7°C° 0 mm 6 m/s 738 mmHg 59%
16:00 +5°C° 0 mm 7 m/s 738 mmHg 64%
17:00 +4°C° 0 mm 7 m/s 739 mmHg 69%
18:00 +3°C° 0 mm 6 m/s 739 mmHg 71%
19:00 +4°C° 0 mm 4 m/s 740 mmHg 74%
20:00 +3°C° 0 mm 3 m/s 740 mmHg 76%
21:00 +2°C° 0 mm 3 m/s 741 mmHg 77%
22:00 +1°C° 0 mm 4 m/s 741 mmHg 78%
23:00 0°C° 0 mm 4 m/s 742 mmHg 79%

Mâine, 9 Mai, Duminică

Timp Temperatura Precipitaţii Vânt Presiune Umiditate
00:00 0°C° 0 mm 4 m/s 742 mmHg 82%
01:00 -1°C° 0 mm 4 m/s 743 mmHg 85%
02:00 0°C° 0 mm 3 m/s 743 mmHg 88%
03:00 0°C° 0 mm 3 m/s 744 mmHg 87%
04:00 -1°C° 0 mm 3 m/s 744 mmHg 86%
05:00 -1°C° 0 mm 3 m/s 745 mmHg 86%
06:00 +1°C° 0 mm 3 m/s 746 mmHg 77%
07:00 +3°C° 0 mm 4 m/s 746 mmHg 68%
08:00 +5°C° 0 mm 4 m/s 747 mmHg 59%
09:00 +7°C° 0 mm 4 m/s 747 mmHg 54%
10:00 +8°C° 0 mm 4 m/s 747 mmHg 49%
11:00 +10°C° 0 mm 4 m/s 748 mmHg 44%
12:00 +10°C° 0 mm 4 m/s 748 mmHg 43%
13:00 +11°C° 0 mm 4 m/s 748 mmHg 42%
14:00 +11°C° 0 mm 4 m/s 748 mmHg 41%
15:00 +11°C° 0 mm 3 m/s 748 mmHg 43%
16:00 +12°C° 0 mm 2 m/s 749 mmHg 44%
17:00 +12°C° 0 mm 2 m/s 749 mmHg 46%
18:00 +10°C° 0 mm 2 m/s 749 mmHg 51%
19:00 +8°C° 0 mm 2 m/s 749 mmHg 57%
20:00 +6°C° 0 mm 2 m/s 750 mmHg 63%
21:00 +6°C° 0 mm 2 m/s 750 mmHg 65%
22:00 +4°C° 0 mm 3 m/s 750 mmHg 67%
23:00 +3°C° 0 mm 3 m/s 750 mmHg 70%

Poimâine, 10 Mai, Luni

Timp Temperatura Precipitaţii Vânt Presiune Umiditate
00:00 +3°C° 0 mm 3 m/s 751 mmHg 71%
01:00 +3°C° 0 mm 3 m/s 751 mmHg 73%
02:00 +3°C° 0 mm 3 m/s 751 mmHg 74%
03:00 +3°C° 0 mm 3 m/s 751 mmHg 76%
04:00 +3°C° 0 mm 3 m/s 752 mmHg 78%
05:00 +3°C° 0 mm 3 m/s 752 mmHg 80%
06:00 +5°C° 0 mm 3 m/s 752 mmHg 75%
07:00 +7°C° 0 mm 4 m/s 752 mmHg 69%
08:00 +10°C° 0 mm 4 m/s 753 mmHg 64%
09:00 +11°C° 0 mm 4 m/s 753 mmHg 60%
10:00 +13°C° 0 mm 4 m/s 753 mmHg 57%
11:00 +14°C° 0 mm 5 m/s 753 mmHg 53%
12:00 +15°C° 0 mm 4 m/s 753 mmHg 52%
13:00 +15°C° 0 mm 4 m/s 752 mmHg 52%
14:00 +15°C° 0 mm 4 m/s 752 mmHg 51%
15:00 +15°C° 0 mm 4 m/s 752 mmHg 54%
16:00 +16°C° 0 mm 3 m/s 752 mmHg 57%
17:00 +16°C° 0 mm 3 m/s 752 mmHg 60%
18:00 +13°C° 0 mm 3 m/s 752 mmHg 66%
19:00 +12°C° 0 mm 3 m/s 752 mmHg 71%
20:00 +10°C° 0 mm 3 m/s 752 mmHg 77%
21:00 +9°C° 0 mm 3 m/s 752 mmHg 78%
22:00 +8°C° 0 mm 3 m/s 752 mmHg 79%
23:00 +8°C° 0 mm 3 m/s 753 mmHg 80%

11 Mai, Marţi

Timp Temperatura Precipitaţii Vânt Presiune Umiditate
00:00 +7°C° 0 mm 3 m/s 753 mmHg 80%
01:00 +7°C° 0 mm 3 m/s 753 mmHg 80%
02:00 +5°C° 0 mm 3 m/s 753 mmHg 80%
03:00 +5°C° 0 mm 3 m/s 753 mmHg 81%
04:00 +5°C° 0 mm 3 m/s 753 mmHg 81%
05:00 +6°C° 0 mm 2 m/s 753 mmHg 81%
06:00 +8°C° 0 mm 3 m/s 753 mmHg 75%
07:00 +10°C° 0 mm 3 m/s 753 mmHg 69%
08:00 +12°C° 0 mm 3 m/s 753 mmHg 63%
09:00 +13°C° 0 mm 3 m/s 753 mmHg 59%
10:00 +15°C° 0 mm 4 m/s 753 mmHg 55%
11:00 +17°C° 0 mm 4 m/s 753 mmHg 52%
12:00 +18°C° 0 mm 4 m/s 753 mmHg 51%
13:00 +18°C° 0 mm 4 m/s 752 mmHg 51%
14:00 +19°C° 0 mm 4 m/s 752 mmHg 51%
15:00 +19°C° 0 mm 4 m/s 752 mmHg 54%
16:00 +19°C° 0 mm 3 m/s 751 mmHg 58%
17:00 +18°C° 0 mm 3 m/s 751 mmHg 62%
18:00 +17°C° 0 mm 3 m/s 751 mmHg 69%
19:00 +14°C° 0 mm 3 m/s 751 mmHg 75%
20:00 +12°C° 0 mm 3 m/s 751 mmHg 82%
21:00 +11°C° 0 mm 3 m/s 751 mmHg 82%
22:00 +10°C° 0 mm 3 m/s 751 mmHg 83%
23:00 +9°C° 0 mm 3 m/s 751 mmHg 84%

12 Mai, Miercuri

Timp Temperatura Precipitaţii Vânt Presiune Umiditate
00:00 +9°C° 0 mm 3 m/s 750 mmHg 85%
01:00 +9°C° 0 mm 3 m/s 750 mmHg 86%
02:00 +8°C° 0 mm 3 m/s 750 mmHg 88%
03:00 +8°C° 0 mm 3 m/s 750 mmHg 88%
04:00 +8°C° 0 mm 2 m/s 750 mmHg 89%
05:00 +8°C° 0 mm 2 m/s 750 mmHg 89%
06:00 +10°C° 0 mm 3 m/s 750 mmHg 82%
07:00 +12°C° 0 mm 3 m/s 749 mmHg 75%
08:00 +14°C° 0 mm 4 m/s 749 mmHg 68%
09:00 +16°C° 0 mm 5 m/s 749 mmHg 64%
10:00 +17°C° 0 mm 5 m/s 749 mmHg 61%
11:00 +19°C° 0 mm 6 m/s 748 mmHg 58%
12:00 +20°C° 0 mm 6 m/s 748 mmHg 58%
13:00 +20°C° 0 mm 6 m/s 748 mmHg 59%
14:00 +21°C° 0 mm 6 m/s 747 mmHg 60%
15:00 +19°C° 0.1 mm 6 m/s 747 mmHg 67%
16:00 +17°C° 0.1 mm 6 m/s 747 mmHg 74%
17:00 +15°C° 0.1 mm 5 m/s 747 mmHg 80%
18:00 +15°C° 0 mm 5 m/s 747 mmHg 82%
19:00 +14°C° 0 mm 4 m/s 747 mmHg 84%
20:00 +13°C° 0 mm 4 m/s 747 mmHg 85%
21:00 +13°C° 0 mm 4 m/s 747 mmHg 87%
22:00 +13°C° 0 mm 3 m/s 747 mmHg 88%
23:00 +12°C° 0 mm 3 m/s 747 mmHg 89%

13 Mai, Joi

Timp Temperatura Precipitaţii Vânt Presiune Umiditate
00:00 +13°C° 0 mm 2 m/s 746 mmHg 91%
01:00 +13°C° 0 mm 2 m/s 746 mmHg 93%
02:00 +13°C° 0 mm 2 m/s 746 mmHg 94%
03:00 +12°C° 0 mm 3 m/s 746 mmHg 95%
04:00 +12°C° 0 mm 3 m/s 745 mmHg 95%
05:00 +12°C° 0 mm 4 m/s 745 mmHg 96%
06:00 +13°C° 0.4 mm 4 m/s 745 mmHg 95%
07:00 +13°C° 0.4 mm 5 m/s 744 mmHg 94%
08:00 +14°C° 0.4 mm 5 m/s 744 mmHg 93%
09:00 +14°C° 0.6 mm 6 m/s 743 mmHg 92%
10:00 +15°C° 0.6 mm 6 m/s 743 mmHg 90%
11:00 +15°C° 0.6 mm 7 m/s 742 mmHg 88%
12:00 +15°C° 2.8 mm 7 m/s 742 mmHg 89%
13:00 +13°C° 2.8 mm 8 m/s 741 mmHg 90%
14:00 +13°C° 2.8 mm 8 m/s 741 mmHg 91%
15:00 +12°C° 2.6 mm 7 m/s 741 mmHg 90%
16:00 +11°C° 2.6 mm 6 m/s 741 mmHg 90%
17:00 +12°C° 2.6 mm 5 m/s 741 mmHg 89%
18:00 +10°C° 0.1 mm 5 m/s 741 mmHg 91%
19:00 +10°C° 0.1 mm 5 m/s 741 mmHg 92%
20:00 +10°C° 0.1 mm 4 m/s 741 mmHg 93%
21:00 +10°C° 0 mm 4 m/s 741 mmHg 93%
22:00 +10°C° 0 mm 4 m/s 741 mmHg 94%
23:00 +9°C° 0 mm 5 m/s 742 mmHg 94%
Arată mai mult

Formular de consimțământ

Meteoprog și furnizorii noștri de servicii pot stoca și accesa date personale, precum cookies, identificatori de dispozitiv sau alte tehnologii similare pe dispozitivul dumneavoastră și procesa astfel de date pentru a personaliza conținutul și reclamele, dar și pentru a oferi caracteristici de social media și pentru a analiza traficul.

  • Stocarea și/sau accesarea informațiilor pe dispozitivul dumneavoastră

    Cookies, identificatori de dispozitiv sau alte informații pot fi stocate sau accesate pe dispozitiv în scopurile indicate mai sus.

  • Reclame și conținut personalizat, evaluarea reclamelor și a conținutului, informații despre audiențe și dezvoltarea produselor

    Reclamele și conținutul pot fi personalizate pe baza unui profil. Pot fi adăugate date suplimentare pentru a personaliza mai bine reclamele și conținutul. Performanța reclamelor și conținutului poate fi măsurată. Pot fi obținute informații despre utilizatorii care au văzut reclamele și conținutul. Aceste date pot fi utilizate pentru a dezvolta sau îmbunătăți experiența utilizatorilor, sistemele și software-ul.

Dând clic pe ‘Sunt de acord’, permiteți utilizarea cookie-urilor menționate, a identificatorilor de dispozitiv, balizelor web sau altor tehnologii similare. Setările pot fi modificate din browser-ul dispozitivului dumneavoastră.

În anumite scopuri, interesele legitime pot prima asupra consimțământului. Puteți citi mai multe informații în acest sens în Politica privind Confidențialitatea Datelor și Cookie.